User: anonymous   Login
Location: Fort Wayne
(41.1310°N, 85.1290°W)
Time: 13:36:17
(UTC-05:00)
Language:

Cosmos 2227 Rocket - Orbit

View from above orbital plane
View from above orbital plane
View from above satellite
View from above satellite

Ground track
Ground track

The orbit data is extracted from the following two-line orbital elements,

1 22285U 92093B   16037.47900342  .00000242  00000-0  14976-3 0  9996
2 22285  71.0216 174.2367 0004293 194.1997 165.9006 14.14989539192277
Epoch (UTC): 06 February 2016 11:29:45
Eccentricity: 0.0004293
inclination: 71.0216°
perigee height: 839 km
apogee height: 845 km
right ascension of ascending node: 174.2367°
argument of perigee: 194.1997°
revolutions per day: 14.14989539
mean anomaly at epoch: 165.9006°
orbit number at epoch: 19227

The dashed part of the orbit path shows where the satellite is in the earth's shadow,  

DLR